TimeEST,TemperatureF,Dew PointF,Humidity,Sea Level PressureIn,VisibilityMPH,Wind Direction,Wind SpeedMPH,Gust SpeedMPH,PrecipitationIn,Events,Conditions,WindDirDegrees,DateUTC
12:54 AM,28.9,26.1,89,30.03,10.0,Calm,Calm,-,N/A,,Overcast,0,2012-12-08 05:54:00
1:54 AM,28.9,26.1,89,30.03,10.0,Calm,Calm,-,N/A,,Overcast,0,2012-12-08 06:54:00
2:54 AM,28.0,25.0,88,30.03,10.0,Calm,Calm,-,N/A,,Clear,0,2012-12-08 07:54:00
3:54 AM,25.0,23.0,92,30.04,10.0,Calm,Calm,-,N/A,,Clear,0,2012-12-08 08:54:00
4:54 AM,24.1,21.9,91,30.04,8.0,Calm,Calm,-,N/A,,Clear,0,2012-12-08 09:54:00
5:54 AM,24.1,21.0,88,30.04,5.0,Calm,Calm,-,N/A,,Clear,0,2012-12-08 10:54:00
6:10 AM,24.8,21.2,86,30.01,1.2,Calm,Calm,-,N/A,,Clear,0,2012-12-08 11:10:00
6:20 AM,24.8,21.2,86,30.01,2.0,Calm,Calm,-,N/A,,Clear,0,2012-12-08 11:20:00
6:27 AM,24.8,21.2,86,30.01,5.0,Calm,Calm,-,N/A,,Clear,0,2012-12-08 11:27:00
6:54 AM,21.9,19.9,92,30.05,7.0,Calm,Calm,-,N/A,,Clear,0,2012-12-08 11:54:00
7:54 AM,24.1,21.9,91,30.06,6.0,Calm,Calm,-,N/A,,Partly Cloudy,0,2012-12-08 12:54:00
8:54 AM,26.1,25.0,96,30.06,7.0,Calm,Calm,-,N/A,,Overcast,0,2012-12-08 13:54:00
9:54 AM,28.9,26.1,89,30.05,9.0,Calm,Calm,-,N/A,,Overcast,0,2012-12-08 14:54:00
10:54 AM,32.0,27.0,82,30.02,10.0,East,3.5,-,N/A,,Scattered Clouds,90,2012-12-08 15:54:00
11:54 AM,33.1,26.1,75,29.99,10.0,Calm,Calm,-,N/A,,Overcast,0,2012-12-08 16:54:00
12:54 PM,34.0,27.0,75,29.97,10.0,East,3.5,-,N/A,,Overcast,80,2012-12-08 17:54:00
1:54 PM,35.1,27.0,72,29.96,10.0,NE,3.5,-,N/A,,Overcast,50,2012-12-08 18:54:00
2:54 PM,34.0,27.0,75,29.94,10.0,East,4.6,-,N/A,,Overcast,80,2012-12-08 19:54:00
3:54 PM,34.0,27.0,75,29.93,10.0,ENE,3.5,-,N/A,,Overcast,70,2012-12-08 20:54:00
4:54 PM,34.0,27.0,75,29.91,10.0,Calm,Calm,-,N/A,,Overcast,0,2012-12-08 21:54:00
5:40 PM,33.8,26.6,75,29.86,3.0,Calm,Calm,-,0.00,Snow,Light Snow,0,2012-12-08 22:40:00
5:54 PM,33.1,28.0,82,29.90,4.0,Calm,Calm,-,0.00,Snow,Light Snow,0,2012-12-08 22:54:00
6:54 PM,32.0,28.9,88,29.87,10.0,NNE,3.5,-,0.01,,Overcast,30,2012-12-08 23:54:00
7:16 PM,32.0,30.2,93,29.83,5.0,NNE,3.5,-,N/A,,Overcast,20,2012-12-09 00:16:00
7:23 PM,32.0,30.2,93,29.82,6.0,NNE,3.5,-,N/A,,Overcast,30,2012-12-09 00:23:00
7:46 PM,32.0,30.2,93,29.82,9.0,Calm,Calm,-,N/A,,Overcast,0,2012-12-09 00:46:00
7:54 PM,32.0,30.0,92,29.84,9.0,NE,3.5,-,N/A,,Overcast,40,2012-12-09 00:54:00
8:54 PM,33.1,30.0,89,29.83,7.0,Calm,Calm,-,N/A,,Overcast,0,2012-12-09 01:54:00
9:20 PM,33.8,30.2,87,29.78,3.0,Calm,Calm,-,N/A,,Overcast,0,2012-12-09 02:20:00
9:54 PM,33.1,30.9,92,29.82,5.0,West,5.8,-,N/A,,Overcast,270,2012-12-09 02:54:00
10:09 PM,33.8,30.2,87,29.78,2.5,Calm,Calm,-,0.01,Rain,Light Rain,0,2012-12-09 03:09:00
10:25 PM,32.0,30.2,93,29.78,2.0,Calm,Calm,-,0.03,Rain,Light Freezing Rain,0,2012-12-09 03:25:00
10:32 PM,33.8,30.2,87,29.78,1.5,Calm,Calm,-,0.04,Rain,Light Freezing Rain,0,2012-12-09 03:32:00
10:46 PM,33.8,30.2,87,29.77,2.0,Calm,Calm,-,0.06,Rain,Light Freezing Rain,0,2012-12-09 03:46:00
10:54 PM,33.1,32.0,96,29.79,1.8,Calm,Calm,-,0.07,Rain,Light Freezing Rain,0,2012-12-09 03:54:00
11:20 PM,33.8,32.0,93,29.76,1.5,Calm,Calm,-,0.00,Rain,Light Freezing Rain,0,2012-12-09 04:20:00
11:34 PM,33.8,32.0,93,29.75,1.0,Calm,Calm,-,0.00,,Overcast,0,2012-12-09 04:34:00
11:50 PM,32.0,30.2,93,29.76,0.8,Calm,Calm,-,0.00,,Overcast,0,2012-12-09 04:50:00
11:54 PM,32.0,30.9,96,29.80,1.0,WSW,4.6,-,0.00,,Overcast,240,2012-12-09 04:54:00